Dewpoint
65 67 68 68 68 68 69 70 70 71 71 71 70 69 68 70 70 72 72 69 68 67 66 66 66 66 65 65 63 64 64 63 63 63 64 63 63 63 63 63 62 62 64 63 63 64 64 64 64 65 65 65 64 65 64 65 65 65 66 65 65 65 65 64 62 62 64 65 66 66 66 67 67 67 67 67 67 68 68 68 67 67 66 66 67
66 68 69 68 68 69 69 70 71 72 71 70 70 69 67 70 72 71 69 69 67 66 66 66 66 66 65 64 63 63 64 64 63 63 63 63 63 63 63 63 63 62 63 63 63 63 64 65 64 65 66 65 65 64 64 64 64 65 65 65 65 65 65 64 63 63 63 65 65 66 66 67 66 67 67 67 66 68 67 67 67 66 66 66 66
67 69 69 69 69 69 71 71 71 71 70 70 70 68 67 71 71 69 68 67 68 67 67 66 66 66 65 64 63 63 63 63 63 63 63 63 63 63 63 63 63 62 62 62 62 63 63 64 64 65 65 65 65 64 64 64 64 64 63 64 64 65 65 65 64 63 63 64 65 65 66 66 66 66 67 67 68 68 67 67 67 67 67 66 66
68 69 69 69 69 70 71 71 71 70 70 70 69 68 69 71 71 69 68 67 67 68 66 66 66 66 64 64 63 64 63 63 62 63 63 63 63 63 63 63 62 62 62 63 63 62 63 63 63 65 66 65 65 64 64 64 64 64 63 64 64 64 64 65 65 65 65 63 64 65 66 66 65 66 68 68 67 67 66 67 67 65 65 65 65
68 68 69 70 70 70 70 71 70 70 69 69 69 69 71 71 70 68 68 67 67 67 67 66 66 65 63 63 63 63 63 63 63 63 63 63 63 63 63 63 62 62 62 63 65 63 63 63 64 65 66 66 65 63 63 63 63 64 63 63 63 63 64 64 64 65 64 63 64 66 66 66 66 67 68 66 67 67 67 65 65 65 64 65 64
68 69 69 69 70 69 70 70 70 70 70 69 68 70 71 71 69 69 69 68 68 67 67 66 65 64 63 63 62 63 64 63 64 63 64 64 64 64 64 63 63 62 63 63 63 63 64 64 64 65 66 66 65 64 64 64 63 63 63 63 63 63 64 64 64 65 65 65 65 65 66 66 66 66 67 67 65 65 65 65 64 64 64 63 63
70 70 70 69 69 70 70 70 70 70 71 69 70 71 71 70 69 69 69 68 68 67 67 66 66 63 64 63 62 63 63 63 64 64 63 63 64 63 63 62 62 63 63 63 64 64 64 64 65 66 67 67 66 65 64 64 64 64 64 63 63 63 63 63 64 64 64 64 64 65 65 66 66 65 67 67 66 66 64 63 62 63 63 63 63
70 70 70 70 70 70 70 70 70 70 70 71 71 71 71 70 69 69 69 68 67 67 67 66 65 64 64 64 64 64 64 64 64 64 64 65 64 63 63 63 63 63 63 63 63 63 63 64 66 66 68 69 68 66 66 65 65 64 64 63 63 62 62 62 63 63 63 64 64 64 65 65 65 66 67 66 64 64 64 63 61 62 62 62 62
70 70 70 70 70 70 70 70 70 70 72 71 71 71 70 70 69 69 69 68 68 67 67 66 65 64 64 64 64 64 64 64 65 65 64 64 64 63 63 63 63 62 62 62 62 62 62 62 65 67 68 68 68 67 68 67 66 65 64 64 63 62 62 62 62 63 63 63 63 64 64 65 65 65 64 64 63 63 64 62 62 60 60 59 60
69 70 70 70 70 71 71 71 70 71 71 71 71 71 70 69 69 68 68 68 68 68 67 66 65 64 64 64 64 64 65 65 67 67 67 65 64 64 63 63 62 63 63 62 62 62 62 62 64 67 68 68 69 68 67 67 67 67 66 65 64 63 62 62 62 62 63 62 62 63 63 63 64 65 64 65 65 64 62 62 61 60 60 58 58
69 70 70 70 71 71 71 70 70 71 71 71 71 70 69 69 68 68 67 67 67 67 66 66 65 64 64 64 64 64 65 66 67 67 68 67 65 64 63 62 61 62 62 62 63 63 62 62 63 64 66 68 68 68 67 66 66 67 66 66 66 65 63 62 62 62 62 62 63 63 63 63 64 65 65 65 65 64 64 64 62 61 59 57 56
69 69 70 71 71 71 71 71 70 71 71 71 70 70 69 68 68 67 66 66 66 66 65 65 65 64 64 64 64 65 66 68 67 68 67 67 66 63 61 61 61 61 61 61 62 62 62 63 63 63 64 68 66 66 67 67 66 67 66 65 65 66 66 65 63 62 62 62 62 62 63 63 64 65 65 64 63 64 63 63 62 60 59 58 57
68 69 70 70 70 71 72 71 71 71 71 71 70 69 69 68 67 66 66 66 66 65 65 64 64 65 64 64 64 66 66 68 67 68 67 66 65 62 60 60 62 61 61 61 61 61 62 63 64 64 63 67 66 65 65 65 68 67 67 67 67 66 66 66 65 64 63 63 63 63 63 63 64 64 65 65 65 63 64 62 62 62 61 60 61
69 69 70 70 71 72 72 72 71 71 71 70 69 69 68 67 67 66 66 66 65 64 64 64 64 65 64 64 65 65 66 69 67 67 65 64 64 62 60 60 60 61 61 61 61 61 61 62 62 64 64 66 66 65 64 64 64 65 65 65 65 66 65 65 64 64 64 63 63 63 64 64 64 65 66 66 65 63 63 62 63 62 62 62 64
69 69 69 70 71 72 72 72 71 71 70 70 69 68 68 68 67 66 65 64 64 63 63 64 64 65 64 64 63 63 65 67 66 64 63 63 63 62 61 61 61 61 61 61 61 61 61 62 62 63 65 67 68 66 64 64 64 63 63 62 63 64 65 65 64 64 64 64 64 64 65 65 66 66 67 67 66 66 65 64 65 64 64 66 65
70 70 69 70 71 72 72 72 71 71 70 69 68 68 68 67 66 66 65 64 64 63 63 64 64 64 64 63 63 63 66 66 64 63 62 63 63 61 61 61 61 61 61 61 62 62 62 62 62 64 64 66 66 66 64 64 63 61 61 61 61 61 62 63 64 64 64 65 65 66 66 67 67 68 68 67 67 67 67 67 66 65 64 62 61
69 70 70 70 72 73 73 72 71 71 70 69 68 68 67 67 66 66 64 63 63 62 62 63 64 63 63 63 62 63 66 64 61 61 61 62 62 61 61 61 61 61 61 61 61 62 62 61 62 63 63 64 64 63 64 62 61 61 60 60 60 61 61 61 63 63 63 63 64 65 66 65 64 63 63 64 66 66 66 64 63 65 62 60 60
69 70 70 70 72 73 73 72 71 71 70 69 68 68 68 67 66 66 64 63 62 62 62 63 63 63 63 62 62 63 65 64 61 60 60 61 62 61 61 61 60 61 60 60 61 62 64 64 62 62 63 64 62 62 63 63 60 60 60 60 60 61 60 60 60 61 63 63 63 64 65 66 67 66 65 64 64 66 66 63 64 64 61 61 60
69 69 70 70 72 74 74 73 72 71 70 69 69 68 68 67 67 66 64 63 62 62 63 62 62 62 63 62 64 63 64 64 59 59 59 61 62 61 61 61 60 59 59 59 60 61 62 64 64 64 63 62 60 61 61 62 60 60 60 60 59 59 60 61 60 61 61 61 62 63 63 64 65 66 66 66 66 66 67 66 65 64 62 62 62
69 70 70 71 72 74 74 73 72 71 70 70 69 69 68 68 67 65 64 62 62 62 63 62 61 61 62 62 64 63 64 64 62 58 59 60 61 61 61 60 60 58 58 58 59 59 60 61 62 60 58 58 58 58 59 60 61 60 61 60 60 59 60 63 62 61 61 61 61 61 62 62 62 63 63 64 65 66 66 66 66 65 64 63 63
69 69 70 71 72 73 74 73 72 71 71 70 69 69 68 67 66 64 63 62 62 62 62 61 61 61 61 62 64 62 63 63 63 58 58 59 60 62 61 60 58 58 59 60 58 58 59 60 61 60 57 57 57 57 57 59 62 61 61 61 61 62 61 61 62 61 61 62 62 62 61 61 62 61 62 62 62 63 64 65 65 66 66 64 64
70 70 70 71 71 73 74 74 73 72 71 70 69 69 68 67 66 64 62 62 61 61 61 62 61 60 61 62 62 62 64 65 62 59 58 57 58 60 61 61 59 58 58 57 57 58 59 61 60 59 56 57 57 57 57 59 62 64 63 59 60 62 62 61 61 61 61 60 60 60 60 60 60 60 60 60 60 62 62 64 64 65 65 65 65
70 71 71 71 72 72 73 74 73 72 71 70 69 68 68 67 65 63 62 61 61 61 61 60 60 59 60 62 62 61 63 65 63 62 59 57 57 58 60 62 60 61 57 57 58 59 59 62 62 60 56 55 55 57 59 61 63 61 58 60 61 62 63 62 62 61 61 60 60 60 60 60 60 60 60 59 60 61 61 62 63 64 64 65 64
72 72 72 72 72 72 73 74 74 73 72 71 70 68 67 66 65 63 62 61 60 60 60 60 59 59 60 60 60 61 62 65 64 63 62 58 56 56 57 58 59 59 59 58 58 59 59 60 60 54 54 53 55 56 59 63 62 57 60 62 64 64 63 62 61 61 61 60 61 60 61 61 61 60 60 61 60 61 61 61 61 62 62 62 62
72 72 72 72 72 72 73 74 74 73 72 70 69 68 67 66 64 63 62 61 60 60 60 60 59 59 59 59 59 60 61 64 65 64 64 62 58 56 57 58 58 57 60 60 61 60 60 54 52 57 57 54 55 59 61 63 59 59 61 65 65 62 62 61 61 60 60 60 59 59 59 60 61 61 62 62 62 62 61 60 61 61 61 60 60
72 72 73 73 73 73 74 74 74 73 72 71 69 68 67 66 64 63 62 61 61 60 59 59 59 59 59 59 59 59 61 63 64 65 65 65 63 59 58 60 62 60 61 60 61 61 58 53 57 60 63 64 64 64 65 65 63 65 65 64 61 62 61 60 61 60 59 59 59 58 58 59 60 61 62 62 63 62 62 62 61 60 61 61 59
73 73 73 73 74 74 74 74 73 72 71 70 69 68 67 66 65 63 62 61 60 60 60 60 60 59 59 59 59 59 60 62 63 65 66 66 63 62 61 61 63 62 63 62 63 62 60 62 63 62 62 65 66 67 67 66 64 61 60 61 62 62 61 61 61 61 60 59 59 58 60 60 61 63 62 62 62 62 62 62 60 60 59 60 59
73 73 73 73 74 74 74 73 72 71 70 70 69 68 67 66 65 63 63 62 61 61 60 60 60 59 60 59 59 59 60 61 62 64 65 64 62 61 60 60 63 61 60 60 61 61 62 65 63 63 64 63 62 61 62 64 64 62 60 60 62 65 64 64 62 61 61 60 60 61 61 61 61 61 61 61 61 61 62 64 61 61 61 61 60
72 72 73 74 74 74 74 74 72 72 70 70 69 68 67 66 66 65 65 64 62 61 60 59 61 61 60 58 59 59 59 60 61 61 64 60 61 59 58 60 61 60 61 58 61 61 61 62 63 62 62 64 63 63 61 60 61 60 59 58 58 60 60 59 58 60 60 62 61 61 59 59 59 60 60 60 61 60 60 61 61 61 60 60 58
71 70 70 72 72 71 72 71 69 68 68 67 64 63 61 61 64 65 65 64 61 58 57 61 61 61 60 61 60 60 59 60 58 55 54 53 53 53 55 54 55 58 59 57 61 59 60 59 60 60 61 62 61 61 60 59 60 58 59 61 60 59 59 60 59 59 61 61 61 59 59 58 58 59 59 59 60 59 60 60 60 62 60 58 56
70 69 69 69 69 68 68 67 67 67 68 67 65 64 63 60 53 59 61 62 58 53 52 55 56 59 61 60 60 57 56 54 52 52 51 50 50 49 49 49 50 52 53 59 60 57 58 58 59 60 61 61 61 61 60 59 60 58 58 59 59 61 60 58 58 59 62 60 59 59 60 57 58 59 59 59 58 58 58 58 59 60 58 57 56
69 69 69 69 69 68 67 67 67 68 67 67 66 66 64 62 61 52 53 56 55 52 50 50 52 54 55 58 62 58 54 51 51 51 51 50 48 47 46 47 48 49 51 53 58 57 58 58 58 58 59 60 61 62 60 59 60 58 57 56 57 60 59 58 59 60 60 59 58 59 57 58 58 58 59 58 58 57 57 56 57 57 56 56 57
69 70 71 70 70 68 67 67 67 67 66 65 65 65 64 63 61 60 57 51 51 49 49 50 51 51 51 51 52 51 51 51 50 49 49 48 46 45 46 46 46 47 51 56 56 57 59 59 59 59 60 59 60 61 61 59 59 58 57 57 57 58 60 59 58 60 59 58 59 58 58 58 58 59 58 58 57 56 56 56 56 57 57 56 56
69 70 70 69 68 67 67 67 67 66 66 66 65 65 64 64 63 62 60 59 59 54 50 49 50 50 50 50 50 49 48 49 49 49 49 48 46 46 46 51 45 46 52 56 56 56 58 58 58 58 60 60 59 60 60 59 59 59 58 58 58 58 59 59 59 60 59 58 58 59 58 57 57 56 56 56 57 56 56 55 55 54 54 54 54
69 70 69 69 68 68 68 67 67 66 66 66 66 65 65 64 63 62 62 61 60 59 58 57 52 49 54 50 48 47 46 47 48 48 48 48 47 45 48 54 53 53 54 56 57 56 58 58 58 59 59 60 60 60 60 59 58 58 57 58 57 57 58 58 59 59 59 58 58 58 57 56 54 56 58 56 55 54 54 53 53 55 55 55 55
68 68 69 68 68 68 67 67 67 66 66 66 66 66 65 64 63 63 62 63 62 61 60 60 58 54 52 51 47 46 45 46 46 47 47 47 46 48 54 54 54 54 54 54 56 57 57 58 58 59 59 60 60 60 61 59 58 59 58 58 58 58 58 59 61 59 60 59 58 58 56 55 55 55 54 55 54 54 54 53 53 55 55 55 56
67 67 67 67 67 66 66 66 66 66 66 66 65 65 64 63 63 63 62 62 62 61 61 59 59 59 57 58 54 46 44 44 45 45 45 46 46 55 55 55 55 55 55 54 54 57 58 58 60 59 59 59 60 59 60 59 58 59 59 58 58 57 57 58 59 61 59 57 59 58 56 55 55 55 54 55 54 53 53 54 55 56 57 57 57
67 67 67 67 66 66 65 65 65 65 65 65 64 64 63 63 63 63 62 62 62 61 60 60 60 59 59 58 57 54 50 46 45 45 45 44 49 56 56 55 55 54 54 55 54 56 57 57 57 58 59 59 59 58 58 59 58 57 58 59 59 58 58 60 61 61 59 58 57 57 55 54 54 54 55 56 55 54 54 55 54 56 58 58 56
67 66 65 65 65 66 66 65 65 64 64 64 64 64 63 63 63 62 62 62 62 61 60 60 60 60 60 58 56 55 53 51 51 51 51 51 52 55 55 55 54 54 55 56 57 57 56 56 56 56 59 59 59 59 58 58 57 57 58 58 57 57 59 59 60 59 60 57 57 56 55 55 54 55 56 55 55 55 55 55 55 55 56 56 57
66 66 65 65 66 65 65 65 65 64 64 64 63 63 63 63 62 62 62 62 61 60 60 59 60 59 59 58 56 54 54 53 53 52 52 52 52 53 55 54 54 53 56 57 56 57 56 56 56 57 59 59 60 59 58 59 58 58 58 57 57 57 58 59 59 57 58 57 56 57 55 55 55 55 55 55 55 55 56 55 56 56 56 54 57
66 66 66 65 65 65 65 65 65 64 64 63 63 63 63 63 63 62 62 62 61 60 59 59 59 59 58 56 53 52 56 55 54 54 53 52 52 53 53 54 55 55 56 57 56 57 57 57 56 56 58 59 59 59 59 58 57 57 57 57 57 56 56 58 57 57 57 58 55 56 56 55 55 55 53 55 56 56 56 56 56 56 56 56 55
66 65 65 65 64 65 64 64 64 64 64 64 63 62 62 62 62 62 62 62 61 60 59 59 59 59 55 51 49 48 56 57 56 54 53 53 53 52 53 54 54 55 56 56 57 57 56 57 57 57 57 58 59 59 58 57 56 56 56 56 56 55 55 55 56 56 57 58 57 56 55 54 56 56 55 56 57 55 55 54 55 55 55 55 55
66 65 65 64 64 64 64 64 64 64 63 63 62 62 62 62 62 62 61 61 62 61 60 58 58 57 55 51 51 50 56 57 56 55 54 54 54 54 54 53 53 54 55 56 57 57 57 57 57 57 57 58 59 59 57 57 56 56 55 56 56 56 55 55 55 55 56 57 57 56 55 53 56 55 55 58 54 54 55 57 56 56 55 55 55
66 65 65 64 64 64 64 64 63 63 63 63 62 62 62 61 61 61 61 61 61 60 59 58 57 56 56 52 51 52 55 57 57 56 55 54 54 54 53 54 53 53 54 54 56 56 56 56 56 57 58 58 58 59 58 57 56 56 55 55 55 55 55 55 55 55 55 55 57 56 55 55 56 55 55 58 55 54 54 54 55 55 54 54 53
66 65 64 64 64 64 64 64 64 63 63 63 62 62 62 61 60 60 60 60 60 59 58 57 56 56 55 53 53 53 55 56 57 57 56 55 55 55 54 54 54 54 53 54 54 55 56 56 56 56 57 57 57 57 58 58 57 56 55 55 55 54 54 55 55 56 56 57 55 56 55 54 55 54 54 56 56 55 53 54 54 55 55 54 54
65 65 64 64 63 63 63 63 63 63 63 62 62 61 61 60 60 60 59 59 59 58 57 57 56 56 55 53 53 54 54 55 55 56 56 56 55 55 55 54 54 54 53 53 54 54 54 55 55 55 56 57 57 56 56 58 58 57 56 55 55 55 55 55 56 57 57 57 56 55 55 54 54 53 54 55 55 55 54 54 53 54 54 53 53
66 65 64 64 64 63 63 63 63 63 63 62 62 61 61 60 60 59 59 59 58 58 57 56 55 55 55 54 53 54 54 54 54 54 56 56 56 56 55 54 54 53 53 54 54 53 54 55 55 55 56 56 57 57 55 56 57 57 57 56 55 56 56 56 57 57 57 58 57 55 54 53 52 53 55 56 54 55 55 54 53 54 54 53 53
66 65 64 64 64 63 63 63 63 63 62 62 62 61 61 60 59 59 59 59 59 58 57 56 56 55 55 54 54 53 54 54 54 55 56 57 57 57 57 56 55 54 53 53 53 53 53 53 54 55 55 56 57 56 56 55 55 57 58 57 57 55 55 52 58 58 58 57 56 56 55 54 53 52 53 56 54 54 55 53 53 52 53 52 53
66 65 65 64 64 64 63 63 63 62 62 61 61 61 61 60 60 59 59 59 59 58 57 56 55 55 55 55 54 53 53 53 53 53 53 54 55 55 56 57 57 56 54 53 52 53 54 54 54 55 55 56 56 56 55 55 54 55 56 57 55 49 48 47 53 58 53 57 56 55 54 54 53 53 53 56 54 54 54 54 54 53 53 52 52
66 66 65 64 64 63 63 63 63 63 62 62 61 61 60 60 59 59 59 58 58 58 57 57 56 55 55 55 55 54 54 53 53 53 53 53 54 54 54 55 56 55 54 53 53 53 53 54 54 54 55 56 56 56 55 54 54 54 54 56 50 49 48 47 47 48 51 55 55 53 53 52 53 52 53 55 54 54 54 54 53 53 52 53 52
67 66 65 65 64 64 63 63 63 63 62 62 61 61 60 59 59 59 59 59 58 58 58 57 57 56 56 55 55 54 54 54 53 53 53 53 53 54 54 54 55 55 55 55 54 54 54 54 54 54 54 54 55 55 55 54 54 54 51 49 48 47 47 45 51 46 46 49 55 54 53 53 53 52 52 53 54 53 53 54 54 53 52 52 52